Weather History for Lewisburg, WV

Change the Weather History Date:

Saturday, January 5, 2013

  Actual Average Record
Temperature  
Mean Temperature 28 °F 28 °F  
Max Temperature 35 °F 38 °F 63 °F (1950)
Min Temperature 21 °F 19 °F -3 °F (1981)
Degree Days  
Heating Degree Days 37    
Month to date heating degree days  
Cooling Degree Days 0    
Month to date cooling degree days  
Year to date cooling degree days  
Moisture  
Dew Point 17 °F    
Average Humidity 64    
Maximum Humidity 86    
Minimum Humidity 41    
Precipitation  
Precipitation 0.00 in 0.10 in 1.32 in (1949)
Month to date precipitation 0.50  
Year to date precipitation 0.50  
Snow  
Snow 0.00 in - - ()
Month to date snowfall  
Snow Depth -    
Sea Level Pressure  
Sea Level Pressure 30.26 in    
Wind  
Wind Speed 5 mph (WSW)    
Max Wind Speed 10 mph    
Max Gust Speed 16 mph    
Visibility 10 miles    
Events      
T = Trace of Precipitation, MM = Missing Value Source: NWS Daily Summary

Daily Weather History Graph

Daily Weather History Graph

Search for Another Location

Airport:

Trip Planner

Search our weather history database for the weather conditions in past years. The results will help you decide how hot, cold, wet, or windy it might be!

Date:

Astronomy

Jan. 05, 2013 Rise Set
Actual Time 7:37 AM EST 5:16 PM EST
Civil Twilight 7:08 AM EST 5:46 PM EST
Nautical Twilight 6:35 AM EST 6:18 PM EST
Astronomical Twilight 6:03 AM EST 6:50 PM EST
Moon 12:46 AM EST (1/5) 12:02 PM EST (1/5)
Length of Visible Light 10h 37m
Length of Day
9h 39m
Last Quarter, 44% of the Moon is Illuminated
Jan 5
Last Quarter
Jan 11
New
Jan 18
First Quarter
Jan 26
Full
Feb 3
Last Quarter

Hourly Weather History & Observations

Time (EST) Temp. Windchill Dew Point Humidity Pressure Visibility Wind Dir Wind Speed Gust Speed Precip Events Conditions
12:15 AM 24.8 °F 16.1 °F 15.8 °F 69% 30.27 in 10.0 mi West 8.1 mph - N/A   Clear
12:35 AM 24.8 °F 16.1 °F 15.8 °F 69% 30.27 in 10.0 mi WNW 8.1 mph - N/A   Clear
12:55 AM 23.0 °F 13.9 °F 15.8 °F 74% 30.27 in 10.0 mi West 8.1 mph - N/A   Clear
1:15 AM 23.0 °F 13.1 °F 17.6 °F 80% 30.27 in 10.0 mi West 9.2 mph - N/A   Clear
1:35 AM 23.0 °F 13.1 °F 15.8 °F 74% 30.29 in 10.0 mi West 9.2 mph 16.1 mph N/A   Clear
1:55 AM 23.0 °F 14.7 °F 15.8 °F 74% 30.30 in 10.0 mi West 6.9 mph - N/A   Clear
2:15 AM 23.0 °F 15.8 °F 15.8 °F 74% 30.30 in 10.0 mi West 5.8 mph - N/A   Clear
2:35 AM 23.0 °F 15.8 °F 15.8 °F 74% 30.31 in 10.0 mi West 5.8 mph - N/A   Clear
2:55 AM 23.0 °F 13.9 °F 17.6 °F 80% 30.31 in 10.0 mi West 8.1 mph - N/A   Clear
3:15 AM 23.0 °F 18.4 °F 15.8 °F 74% 30.32 in 10.0 mi West 3.5 mph - N/A   Scattered Clouds
3:35 AM 23.0 °F 17.0 °F 17.6 °F 80% 30.33 in 10.0 mi WSW 4.6 mph - N/A   Overcast
3:55 AM 24.8 °F 20.5 °F 17.6 °F 74% 30.33 in 10.0 mi West 3.5 mph - N/A   Overcast
4:15 AM 24.8 °F 20.5 °F 17.6 °F 74% 30.34 in 10.0 mi NW 3.5 mph - N/A   Overcast
4:35 AM 24.8 °F - 17.6 °F 74% 30.34 in 10.0 mi Calm Calm - N/A   Overcast
4:55 AM 24.8 °F 19.1 °F 17.6 °F 74% 30.33 in 10.0 mi NNW 4.6 mph - N/A   Overcast
5:15 AM 23.0 °F - 17.6 °F 80% 30.31 in 10.0 mi Calm Calm - N/A   Scattered Clouds
5:35 AM 21.2 °F - 15.8 °F 80% 30.30 in 10.0 mi Calm Calm - N/A   Clear
5:55 AM 21.2 °F 16.4 °F 15.8 °F 80% 30.30 in 10.0 mi WSW 3.5 mph - N/A   Clear
6:15 AM 21.2 °F 16.4 °F 15.8 °F 80% 30.30 in 10.0 mi WSW 3.5 mph - N/A   Clear
6:55 AM 21.2 °F 13.6 °F 17.6 °F 86% 30.31 in 10.0 mi WSW 5.8 mph - N/A   Clear
7:35 AM 21.2 °F 12.6 °F 17.6 °F 86% 30.32 in 10.0 mi WSW 6.9 mph - N/A   Clear
7:55 AM 23.0 °F 15.8 °F 17.6 °F 80% 30.32 in 10.0 mi WSW 5.8 mph - N/A   Clear
8:15 AM 23.0 °F 14.7 °F 17.6 °F 80% 30.32 in 10.0 mi WSW 6.9 mph - N/A   Clear
8:35 AM 23.0 °F 17.0 °F 17.6 °F 80% 30.32 in 10.0 mi SW 4.6 mph - N/A   Clear
8:55 AM 24.8 °F 16.9 °F 17.6 °F 74% 30.33 in 10.0 mi WSW 6.9 mph - N/A   Clear
9:15 AM 26.6 °F 19.1 °F 17.6 °F 69% 30.33 in 10.0 mi WSW 6.9 mph - N/A   Clear
9:35 AM 26.6 °F 18.2 °F 17.6 °F 69% 30.34 in 10.0 mi WSW 8.1 mph - N/A   Clear
9:55 AM 26.6 °F 16.8 °F 17.6 °F 69% 30.35 in 10.0 mi WSW 10.4 mph - N/A   Clear
10:15 AM 28.4 °F 19.1 °F 15.8 °F 59% 30.36 in 10.0 mi West 10.4 mph - N/A   Clear
10:35 AM 28.4 °F 19.7 °F 15.8 °F 59% 30.35 in 10.0 mi WSW 9.2 mph - N/A   Clear
10:55 AM 28.4 °F 22.2 °F 14.0 °F 55% 30.34 in 10.0 mi WSW 5.8 mph - N/A   Clear
11:15 AM 30.2 °F 26.7 °F 14.0 °F 51% 30.33 in 10.0 mi West 3.5 mph - N/A   Clear
11:35 AM 30.2 °F 26.7 °F 14.0 °F 51% 30.32 in 10.0 mi SW 3.5 mph - N/A   Clear
11:55 AM 32.0 °F 28.7 °F 14.0 °F 48% 30.30 in 10.0 mi South 3.5 mph - N/A   Clear
12:35 PM 32.0 °F 28.7 °F 14.0 °F 48% 30.28 in 10.0 mi SW 3.5 mph - N/A   Clear
12:55 PM 32.0 °F - 14.0 °F 48% 30.27 in 10.0 mi Calm Calm - N/A   Clear
1:15 PM 32.0 °F 27.5 °F 14.0 °F 48% 30.26 in 10.0 mi SW 4.6 mph - N/A   Clear
1:35 PM 32.0 °F - 12.2 °F 44% 30.24 in 10.0 mi Calm Calm - N/A   Clear
1:55 PM 33.8 °F - 14.0 °F 44% 30.24 in 10.0 mi Calm Calm - N/A   Clear
2:15 PM 33.8 °F - 14.0 °F 44% 30.24 in 10.0 mi Calm Calm - N/A   Clear
2:35 PM 33.8 °F - 14.0 °F 44% 30.23 in 10.0 mi Calm Calm - N/A   Clear
2:55 PM 33.8 °F - 14.0 °F 44% 30.23 in 10.0 mi Calm Calm - N/A   Clear
3:15 PM 33.8 °F - 14.0 °F 44% 30.22 in 10.0 mi Calm Calm - N/A   Clear
3:35 PM 35.6 °F - 14.0 °F 41% 30.23 in 10.0 mi Calm Calm - N/A   Clear
3:55 PM 33.8 °F 30.8 °F 15.8 °F 48% 30.22 in 10.0 mi NNW 3.5 mph - N/A   Clear
4:15 PM 33.8 °F - 15.8 °F 48% 30.22 in 10.0 mi Calm Calm - N/A   Clear
4:35 PM 33.8 °F - 15.8 °F 48% 30.22 in 10.0 mi Calm Calm - N/A   Clear
4:55 PM 33.8 °F - 17.6 °F 52% 30.21 in 10.0 mi Calm Calm - N/A   Clear
5:15 PM 32.0 °F - 17.6 °F 55% 30.20 in 10.0 mi Calm Calm - N/A   Clear
5:55 PM 32.0 °F - 17.6 °F 55% 30.20 in 10.0 mi Calm Calm - N/A   Clear
6:15 PM 32.0 °F - 19.4 °F 60% 30.22 in 10.0 mi Calm Calm - N/A   Scattered Clouds
6:35 PM 32.0 °F 28.7 °F 21.2 °F 64% 30.19 in 10.0 mi East 3.5 mph - N/A   Mostly Cloudy
7:15 PM 32.0 °F - 19.4 °F 60% 30.20 in 10.0 mi Calm Calm - N/A   Overcast
7:35 PM 32.0 °F - 21.2 °F 64% 30.19 in 10.0 mi Calm Calm - N/A   Overcast
7:55 PM 32.0 °F - 19.4 °F 60% 30.19 in 10.0 mi Calm Calm - N/A   Overcast
8:15 PM 32.0 °F - 21.2 °F 64% 30.19 in 10.0 mi Calm Calm - N/A   Overcast
8:35 PM 32.0 °F - 21.2 °F 64% 30.20 in 10.0 mi Calm Calm - N/A   Overcast
9:15 PM 32.0 °F - 21.2 °F 64% 30.17 in 10.0 mi Calm Calm - N/A   Overcast
9:35 PM 32.0 °F - 21.2 °F 64% 30.17 in 10.0 mi Calm Calm - N/A   Scattered Clouds
9:55 PM 32.0 °F - 21.2 °F 64% 30.17 in 10.0 mi Calm Calm - N/A   Scattered Clouds
10:15 PM 30.2 °F - 23.0 °F 75% 30.17 in 10.0 mi Calm Calm - N/A   Mostly Cloudy
10:35 PM 30.2 °F - 23.0 °F 75% 30.17 in 10.0 mi Calm Calm - N/A   Overcast
10:55 PM 32.0 °F 28.7 °F 23.0 °F 69% 30.18 in 10.0 mi NW 3.5 mph - N/A   Overcast
11:15 PM 32.0 °F - 21.2 °F 64% 30.18 in 10.0 mi Calm Calm - N/A   Overcast
11:35 PM 32.0 °F 28.7 °F 23.0 °F 69% 30.18 in 10.0 mi WSW 3.5 mph - N/A   Overcast
11:55 PM 32.0 °F 27.5 °F 19.4 °F 60% 30.18 in 10.0 mi SW 4.6 mph - N/A   Overcast